Weather Roundup
Issued by NWS

Home | Current Version | Previous Version | Graphics & Text | Print | Product List | Glossary Off
Versions: 1 2 3 4 5 6 7 8 9 10 11 12 13 14 15 16 17 18 19 20 21 22 23 24 25 26 27 28 29 30 31 32 33 34 35 36 37 38 39 40 41 42 43 44 45 46 47 48 49 50

000
NZUS93 KARX 270259
HRRWXR

CURRENT HOURLY OBSERVATIONS ACROSS
MUCH OF THE UPPER MISSISSIPPI VALLEY
NATIONAL WEATHER SERVICE LA CROSSE WI
900 PM CST THU FEB 26 2015


...SOUTHEAST MINNESOTA...


CITY           SKY/WX    TMP DP  RH WIND       PRES   REMARKS
ROCHESTER      CLEAR     -4 -11  72 W13       30.43R WCI -23
ROCHESTER/MAYO FAIR       1  -7  68 W9G17     30.44R WCI -14
WINONA         CLEAR      1  -8  66 CALM      30.48S
AUSTIN         CLEAR     -2  -9  71 NW9       30.45R WCI -18
ALBERT LEA     CLEAR     -4  -9  77 W7        30.46S WCI -18
DODGE CENTER   PTCLDY    -2  -8  78 W12       30.43R WCI -20
PRESTON        CLEAR     -3 -11  70 NW13      30.43R WCI -22
OWATONNA       CLEAR     -6 -11  77 W8        30.46S WCI -21
FARIBAULT      FAIR      -2  -9  71 W7        30.47S WCI -16
$$

...ELSEWHERE IN MINNESOTA...


CITY           SKY/WX    TMP DP  RH WIND       PRES   REMARKS
MINNEAPOLIS    CLEAR      4  -8  57 NW9       30.48R WCI -10
INTNL FALLS    CLEAR     -3 -14  59 W6        30.37S WCI -15
DULUTH         CLEAR      1 -13  51 NW9       30.34R WCI -14
RED WING       CLEAR      0 -11  60 NW3       30.47S
REDWOOD FALLS  CLEAR     -4 -10  75 W9        30.52R WCI -20
MANKATO        CLEAR     -2 -11  65 W9        30.49R WCI -18
FAIRMONT       CLEAR     -2  -9  71 NW10      30.48R WCI -19
$$

...SOUTHWEST WISCONSIN...


CITY           SKY/WX    TMP DP  RH WIND       PRES   REMARKS
LA CROSSE      CLEAR      2  -8  63 CALM      30.47R
PRAIRIE DU CHI CLEAR      1 -10  60 NW5       30.48R WCI  -8
BOSCOBEL       CLEAR      0  -8  69 CALM      30.47R
LONE ROCK      NOT AVBL
PLATTEVILLE    CLEAR      1  -8  65 W7        30.42R WCI -11
FORT MC COY    CLEAR     -4 -10  77 CALM      30.44S
VIROQUA        FAIR       1  -8  67 NW6       30.39R WCI -11
WIS DELLS      NOT AVBL
$$

...ELSEWHERE IN WISCONSIN...


CITY           SKY/WX    TMP DP  RH WIND       PRES   REMARKS
MILWAUKEE      CLEAR      8  -6  52 NW3       30.40R
MADISON        CLEAR      2  -8  63 NW3       30.40R
GREEN BAY      CLEAR      4  -3  73 W6        30.37R WCI  -7
EAU CLAIRE     NOT AVBL
BLACK RVR FLS  FAIR      -8 -15  74 CALM      30.43R
MEDFORD        CLEAR      0 -11  60 W6        30.32S WCI -12
WAUSAU         CLEAR      2  -9  60 NW6       30.34R WCI  -9
WIS RAPIDS     CLEAR      2 -11  54 W7        30.40R WCI -11
MARSHFIELD     CLEAR      1 -11  57 W6        30.36R WCI -10
RICE LAKE      CLEAR      1 -11  57 W6        30.42S WCI -10
$$

...NORTHEAST IOWA...


CITY           SKY/WX    TMP DP  RH WIND       PRES   REMARKS
DECORAH        CLEAR     -2 -11  65 CALM      30.43R
MASON CITY     CLEAR     -9 -14  78 W10       30.50R WCI -27
CHARLES CITY   CLEAR     -6 -13  71 W9        30.48R WCI -22
OELWEIN        FAIR      -8 -15  71 NW10      30.47R WCI -26
$$

...ELSEWHERE IN IOWA...


CITY           SKY/WX    TMP DP  RH WIND       PRES   REMARKS
DES MOINES     CLEAR      3  -6  66 N6        30.54R WCI  -8
IOWA CITY      CLEAR      1  -8  66 NW12      30.53R WCI -16
FORT DODGE     CLEAR     -6 -11  77 CALM      30.53R
$$

...NORTHERN ILLINOIS...


CITY           SKY/WX    TMP DP  RH WIND       PRES   REMARKS
CHICAGO-OHARE  PTCLDY     5  -7  57 NW10      30.40R WCI -10
CHICAGO-MIDWAY FAIR      11  -3  53 NW12      30.40R WCI  -3
MOLINE         CLEAR      2  -7  66 W10       30.49R WCI -14
ROCKFORD       CLEAR     -1  -8  72 S3        30.43R
PEORIA         CLEAR      8  -2  63 NW6       30.47R WCI  -2
$$

NOTE: "FAIR" INDICATES FEW OR NO CLOUDS BELOW 12,000 FEET WITH NO
SIGNIFICANT WEATHER AND/OR OBSTRUCTIONS TO VISIBILITY. WIND
SPEEDS ARE IN MILES-PER-HOUR.



USA.gov is the U.S. government's official web portal to all federal, state and local government web resources and services.